Find Starlink 11472

NORAD ID: 62067 Int'l Des: 2024-217 Owner: SPXS Country: US Constellation: starlink operational
LEOCIRCULAR

現在のビュー

3D地球を読み込み中...

About Starlink 11472

Starlink 11472 (NORAD 62067) is a starlink constellation satellite (v2 mini d2c) launched Nov 24, 2024 by SPXS of US. It operates in LEO, CIRCULAR orbit with a mass of 960.00 kg.

Starlink 11472について

説明を読み込み中...

次回通過

Passes for default location (London). Set your location on the main map for personalized predictions.

高度履歴

Loading altitude history...

軌道要素

1 62067U 24217L 26168.68236985 .00118442 00000-0 96855-3 0 9993
2 62067 53.1579 298.6858 0001104 107.7244 252.3895 15.69710938 90800
Epoch: Jun 17, 2026 • Age: 9 hours

現在のステータス

高度 369.8 km
速度 7.69 km/s
衛星直下点 -32.22°S, 135.71°W
打ち上げ日 Nov 24, 2024
運用期間 1.5 years
タイプ internet

技術仕様

分類 Payload
質量 960.00 kg
乾燥質量 910.00 kg
総質量 960.00 kg
長さ 0.30 m
直径 4.10 m
スパン 29.00 m
形状 Box + pan
製造者 SPXS
バスタイプ Starlink V2MD
フェーズステータス In Orbit
所有者/国 SPXS/US

Most Searched